Printer-friendly version

IAU Minor Planet Center

Minor Planet Center

180P/NEAT

Orbital Elements

The following orbital elements are taken from MPC 62583:
180P/NEAT
Epoch 2008 May 14.0 TT = JDT 2454600.5
T 2008 May 26.7190 TT                                   MPC
q   2.468692             (2000.0)            P               Q
n   0.1308199      Peri.   94.9156      -0.9570676      -0.0094824
a   3.843146       Node    84.7526      -0.1136019      -0.9072394
e   0.357638       Incl.   16.9136      +0.2666762      -0.4205077
P   7.53
From 286 observations 1955-2008, mean residual 0".7.
Elements are also available for the current standard epoch:
180P/NEAT
Epoch 2010 Jan. 4.0 TT = JDT 2455200.5
T 2008 May 27.0513 TT                                   MPC
q   2.471904             (2000.0)            P               Q
n   0.1306868      Peri.   95.0969      -0.9571435      -0.0066527
a   3.845755       Node    84.7409      -0.1162229      -0.9068805
e   0.357238       Incl.   16.9036      +0.2652707      -0.4213353
P   7.54
An explanation of the orbital elements is available.

These orbital elements are also available in forms suitable for loading into a number of popular planetarium-type software programs.


Ephemeris

The following ephemeris is at intervals of five days. A daily ephemeris covering the same time interval is also available.

Personalized ephemerides for this (and other) objects may be generated using the Minor Planet & Comet Ephemeris Service.

Recent magnitude estimates for this comet (as reported to the ICQ) may be available.

Date    TT    R. A. (2000) Decl.     Delta      r     Elong.  Phase   m1    m2

WARNING!

This comet gets close to the sun during the period covered in the ephemeris below. Observers are warned to be wary of observing comets near the sun. NEVER point any kind of optical instrument at the sun--instant blindness will be the probable result.

2009 10 26 18 20.66 -29 35.7 4.160 3.798 62.1 13.4 19.9 2009 10 31 18 26.09 -29 36.2 4.240 3.814 58.4 12.8 20.0 2009 11 05 18 31.71 -29 36.0 4.318 3.830 54.6 12.2 20.0 2009 11 10 18 37.49 -29 35.0 4.392 3.845 50.9 11.5 20.1 2009 11 15 18 43.42 -29 33.1 4.464 3.861 47.2 10.8 20.1 2009 11 20 18 49.48 -29 30.5 4.532 3.877 43.6 10.1 20.2 2009 11 25 18 55.65 -29 27.0 4.597 3.892 39.9 9.4 20.2 2009 11 30 19 01.92 -29 22.7 4.658 3.908 36.3 8.6 20.3 2009 12 05 19 08.27 -29 17.6 4.716 3.923 32.7 7.8 20.3 2009 12 10 19 14.68 -29 11.7 4.769 3.938 29.2 7.0 20.3 2009 12 15 19 21.14 -29 05.0 4.818 3.953 25.7 6.2 20.4 2009 12 20 19 27.64 -28 57.5 4.862 3.969 22.2 5.4 20.4 2009 12 25 19 34.15 -28 49.3 4.902 3.984 18.8 4.6 20.5 2009 12 30 19 40.68 -28 40.4 4.937 3.999 15.5 3.8 20.5 2010 01 04 19 47.20 -28 30.9 4.968 4.014 12.5 3.0 20.5 2010 01 09 19 53.71 -28 20.8 4.994 4.028 9.8 2.4 20.5 2010 01 14 20 00.18 -28 10.1 5.015 4.043 8.0 1.9 20.6 2010 01 19 20 06.62 -27 59.0 5.031 4.058 7.6 1.8 20.6 2010 01 24 20 13.01 -27 47.6 5.042 4.073 8.9 2.1 20.6 2010 01 29 20 19.33 -27 35.8 5.049 4.087 11.2 2.7 20.6 2010 02 03 20 25.58 -27 23.8 5.050 4.102 14.2 3.4 20.6 2010 02 08 20 31.74 -27 11.7 5.047 4.116 17.4 4.1 20.7 2010 02 13 20 37.82 -26 59.6 5.039 4.130 20.8 4.9 20.7 2010 02 18 20 43.78 -26 47.6 5.026 4.145 24.2 5.6 20.7 2010 02 23 20 49.64 -26 35.8 5.008 4.159 27.8 6.4 20.7 2010 02 28 20 55.36 -26 24.3 4.986 4.173 31.4 7.1 20.7 2010 03 05 21 00.96 -26 13.1 4.960 4.187 35.0 7.8 20.7 2010 03 10 21 06.41 -26 02.6 4.930 4.201 38.7 8.5 20.7 2010 03 15 21 11.70 -25 52.6 4.895 4.214 42.4 9.2 20.7 2010 03 20 21 16.83 -25 43.5 4.857 4.228 46.2 9.8 20.7 2010 03 25 21 21.78 -25 35.3 4.814 4.242 49.9 10.4 20.7 2010 03 30 21 26.54 -25 28.1 4.769 4.255 53.7 10.9 20.7 2010 04 04 21 31.10 -25 22.1 4.720 4.269 57.6 11.4 20.7 2010 04 09 21 35.46 -25 17.4 4.669 4.282 61.5 11.9 20.7 2010 04 14 21 39.59 -25 14.1 4.615 4.296 65.4 12.3 20.7 2010 04 19 21 43.48 -25 12.3 4.558 4.309 69.4 12.6 20.6 2010 04 24 21 47.12 -25 12.3 4.500 4.322 73.4 12.9 20.6 2010 04 29 21 50.49 -25 14.0 4.440 4.335 77.5 13.1 20.6 2010 05 04 21 53.59 -25 17.6 4.379 4.348 81.6 13.3 20.6 2010 05 09 21 56.39 -25 23.2 4.317 4.361 85.8 13.3 20.6 2010 05 14 21 58.88 -25 31.0 4.254 4.373 90.0 13.4 20.6 2010 05 19 22 01.05 -25 40.8 4.192 4.386 94.3 13.3 20.5 2010 05 24 22 02.87 -25 52.9 4.130 4.399 98.7 13.2 20.5 2010 05 29 22 04.34 -26 07.2 4.069 4.411 103.1 12.9 20.5 2010 06 03 22 05.44 -26 23.6 4.009 4.424 107.6 12.6 20.5 2010 06 08 22 06.16 -26 42.2 3.952 4.436 112.2 12.2 20.5 2010 06 13 22 06.48 -27 02.9 3.897 4.448 116.8 11.8 20.4 2010 06 18 22 06.40 -27 25.5 3.845 4.460 121.5 11.2 20.4 2010 06 23 22 05.91 -27 49.8 3.796 4.472 126.2 10.6 20.4 2010 06 28 22 05.02 -28 15.6 3.752 4.484 131.0 9.9 20.4 2010 07 03 22 03.73 -28 42.6 3.712 4.496 135.7 9.1 20.4 2010 07 08 22 02.05 -29 10.4 3.677 4.508 140.4 8.3 20.4 2010 07 13 22 00.00 -29 38.7 3.648 4.519 145.1 7.4 20.4 2010 07 18 21 57.61 -30 07.0 3.625 4.531 149.6 6.5 20.4 2010 07 23 21 54.90 -30 34.8 3.608 4.542 153.9 5.7 20.4 2010 07 28 21 51.93 -31 01.7 3.598 4.554 157.6 4.9 20.4 2010 08 02 21 48.74 -31 27.2 3.595 4.565 160.6 4.2 20.4 2010 08 07 21 45.39 -31 51.0 3.599 4.576 162.4 3.8 20.4 2010 08 12 21 41.94 -32 12.6 3.611 4.587 162.5 3.8 20.4 2010 08 17 21 38.46 -32 31.7 3.629 4.598 161.0 4.1 20.4 2010 08 22 21 35.01 -32 48.0 3.655 4.609 158.2 4.7 20.5 2010 08 27 21 31.67 -33 01.4 3.688 4.620 154.5 5.4 20.5 2010 09 01 21 28.48 -33 11.7 3.727 4.631 150.3 6.2 20.5 2010 09 06 21 25.51 -33 18.9 3.773 4.642 145.8 7.0 20.6 2010 09 11 21 22.82 -33 23.1 3.825 4.652 141.1 7.8 20.6 2010 09 16 21 20.44 -33 24.4 3.883 4.662 136.3 8.6 20.6 2010 09 21 21 18.41 -33 22.8 3.946 4.673 131.6 9.3 20.7 2010 09 26 21 16.76 -33 18.5 4.014 4.683 126.8 9.9 20.7 2010 10 01 21 15.49 -33 11.8 4.085 4.693 122.0 10.4 20.8 2010 10 06 21 14.64 -33 02.9 4.161 4.703 117.2 10.9 20.8 2010 10 11 21 14.19 -32 51.8 4.239 4.713 112.5 11.3 20.9 2010 10 16 21 14.15 -32 38.9 4.321 4.723 107.9 11.6 20.9 2010 10 21 21 14.51 -32 24.3 4.404 4.733 103.3 11.8 21.0 2010 10 26 21 15.25 -32 08.2 4.488 4.742 98.7 12.0 21.0 2010 10 31 21 16.37 -31 50.8 4.574 4.752 94.3 12.0 21.1 2010 11 05 21 17.84 -31 32.1 4.660 4.761 89.8 12.0 21.1 2010 11 10 21 19.65 -31 12.3 4.746 4.771 85.4 11.9 21.2 2010 11 15 21 21.78 -30 51.6 4.832 4.780 81.1 11.8 21.2 2010 11 20 21 24.20 -30 30.0 4.917 4.789 76.8 11.6 21.3 2010 11 25 21 26.89 -30 07.6 5.000 4.798 72.6 11.3 21.3 2010 11 30 21 29.84 -29 44.6 5.081 4.807 68.4 11.0 21.3

Valid HTML 4.01!